星链-4718 (STARLINK-4718 )

导读 | 豆包AI

STARLINK-4718是美国SpaceX公司星链(Starlink)低轨互联网卫星星座的成员,于2022年9月11日发射升空,目前仍正常在轨运行。它运行在近地轨道,倾角约53度,轨道高度在137千米到153千米之间,属于星链星座组网卫星,目标是为全球偏远地区提供低延迟高速宽带互联网服务。

Basic Information
目录编号:
53773
目录名称:
STARLINK-4718
国际标识:
2022-111A
轨道中心:
EARTH
卫星名称:
星链-4718
卫星全名:
星链-4718 (STARLINK-4718 )
卫星状态:
在轨 (已飞行1281 天)
发射日期:
2022-09-11 UTC
国别 :
美国 (US)
星等 :
--
Orbit Information
数据来源 国际轨道数据
星历时间: 2026-03-15T05:37:42+0800
11小时前
查看轨道信息
半长轴: 6917.878km
偏心率: 0.000132
轨道倾角: 53.215°
近地点辐角 91.449°
升交点赤经 260.651°
平近点角 268.665°
近地点: 538.827km
远地点: 540.655km
周期: 95.437分钟
每日圈数: 15.088411
Detailed Information
固有亮度:
5
最大亮度:
2.5
卫星平台:
Starlink v1.5
覆盖范围:
全球
运营商:
太空探索技术公司
运营商所在国:
美国
制造商(研发单位):
太空探索技术公司
制造商所在国:
美国
使用方式:
暂无
Satellite Introduction
星链(Starlink)计划是由太空探索技术公司(SpaceX)提出的一个巨型低轨卫星互联网星座项目,计划在2019年至2024年间在太空搭建由约1.2万颗卫星组成的“星链”网络,其中1584颗将部署在地球上空550千米处的近地轨道,并从2020年开始工作。该卫星仍在工作。
2D Orbit Map
3D Orbit Map
Orbit Altitude Analysis Chart
Orbit Inclination Analysis Chart
Orbit Comprehensive Analysis Chart
View Comprehensive Chart